Location: Newark
(49.3000°N, 9.4667°E)
Time: 11:21:04
(UTC+00:00)

Tiros 1 - Pass Details

Date: 30 May 2019
Orbit: 631 x 664 km, 48.4° (Epoch: 15 June)

Event Time Altitude Azimuth Distance (km) Brightness Sun altitude
Rises 08:08:02 0° 235° (SW) 2,911 10.2 43.4°
Reaches altitude 10° 08:10:24 10° 230° (SW) 2,008 9.6 43.8°
Maximum altitude 08:14:49 47° 157° (SSE) 839 8.9 44.4°
Drops below altitude 10° 08:19:18 10° 83° (E) 2,028 10.6 45.1°
Sets 08:21:42 0° 78° (ENE) 2,944 11.1 45.5°
